Alvwood, Minnesota
Current Conditions -  °F | °C
As of 1:34 PM on Saturday 25 Oct 2014 (Local Time) from KVWU Reporting Station
Clear Clear  
Wind Chill: 54°   Ceiling: Unl
Heat Index: 54°   Visibility: 10mi
Dew Point: 34°   Wind: 18mph
Humidity: 47%   Direction: 280°W
Pressure: 29.98"   Gusts: 24mph
Location:  47.7306°N, 94.3762°W
Report Text: KVWU 251834Z AUTO 28016G21KT 10SM CLR 12/01 A2998 RMK AO2
Loading
Personal Weather Stations






























Interactive Weather Map
Tropical Storm Tracking
New forecast layout! Learn more

10-Day Weather Forecast

Advertisements
Track Severe Weather on mobile